Voltar ao catálogo

COSMOS 2251 DEB

AtivoLEO
NORAD 34722·DEBRIS·🇷🇺 Russia

Lançado Jun 16, 1993 de Plesetsk Cosmodrome

Loading…

Próximas Passagens (próximas 24 horas)

TLE

AtualizadoSource: Space-Track

Época: Sep 14, 2026, 14:22 UTC

1 34722U 93036YQ  26257.59889171  .00000501  00000-0  25121-3 0  9999
2 34722  73.8722 203.8501 0161108  76.5539  97.0317 14.12534402901395

Acompanhe COSMOS 2251 DEB em tempo real com AllMySat

Download on the App Store